| time (UTC) | temp F | wind direction | speed MPH | gust MPH | rain 1hr in | rain 24hr in | rain mn in | humidity % | barometer mb |
| 20260901103021 | 58 | 135 | 0.0 | 0.0 | 0.01 | 0.01 | 0.01 | 95 | 1014.1 |
| 20260901101508 | 58 | 135 | 0.0 | 0.0 | 0.01 | 0.01 | 0.01 | 95 | 1014.3 |
| 20260901100017 | 58 | 138 | 0.0 | 0.0 | 0.01 | 0.01 | 0.01 | 94 | 1014.1 |
| 20260901094509 | 58 | 135 | 0.0 | 0.0 | 0.01 | 0.01 | 0.01 | 94 | 1014.1 |
| 20260901093017 | 58 | 136 | 0.0 | 0.0 | 0.00 | 0.00 | 0.00 | 94 | 1014.0 |
| 20260901091510 | 58 | 135 | 0.0 | 0.0 | 0.00 | 0.00 | 0.00 | 94 | 1014.4 |
| 20260901090019 | 58 | 136 | 0.0 | 0.0 | 0.00 | 0.00 | 0.00 | 94 | 1014.3 |
| 20260901084510 | 58 | 135 | 0.0 | 0.0 | 0.00 | 0.00 | 0.00 | 93 | 1014.0 |
| 20260901083021 | 58 | 135 | 0.0 | 0.0 | 0.00 | 0.00 | 0.00 | 93 | 1013.9 |
| 20260901081511 | 58 | 135 | 0.0 | 0.0 | 0.00 | 0.00 | 0.00 | 93 | 1014.0 |
| 20260901080020 | 58 | 136 | 0.0 | 0.0 | 0.00 | 0.00 | 0.00 | 93 | 1013.9 |
| 20260901074509 | 58 | 137 | 0.0 | 0.0 | 0.00 | 0.00 | 0.00 | 93 | 1014.3 |
| 20260901073018 | 58 | 135 | 0.0 | 0.0 | 0.00 | 0.00 | 0.00 | 93 | 1014.3 |
| 20260901071507 | 58 | 135 | 0.0 | 0.0 | 0.00 | 0.00 | 0.00 | 93 | 1014.0 |
| 20260901070016 | 58 | 135 | 0.0 | 0.0 | 0.00 | 0.00 | 0.00 | 93 | 1014.2 |
| 20260901064511 | 58 | 136 | 0.0 | 0.0 | 0.00 | 0.00 | 0.00 | 93 | 1014.3 |
| 20260901063022 | 58 | 137 | 0.0 | 0.0 | 0.00 | 0.00 | 0.00 | 93 | 1014.4 |
| 20260901061508 | 58 | 137 | 0.0 | 0.0 | 0.00 | 0.00 | 0.00 | 93 | 1014.6 |
| 20260901060017 | 58 | 136 | 0.0 | 0.0 | 0.00 | 0.00 | 0.00 | 93 | 1014.6 |
| 20260901054510 | 58 | 137 | 0.0 | 0.0 | 0.00 | 0.00 | 0.00 | 93 | 1014.8 |
| 20260901053018 | 58 | 135 | 0.0 | 0.0 | 0.00 | 0.00 | 0.00 | 93 | 1015.0 |
| 20260901051526 | 58 | 135 | 0.0 | 0.0 | 0.00 | 0.00 | 0.00 | 93 | 1015.0 |
| 20260901050019 | 58 | 135 | 0.0 | 0.0 | 0.00 | 0.00 | 0.00 | 93 | 1015.0 |
| 20260901044507 | 58 | 137 | 0.0 | 0.0 | 0.00 | 0.00 | 0.00 | 92 | 1015.2 |
| 20260901043022 | 58 | 137 | 0.0 | 0.0 | 0.00 | 0.00 | 0.00 | 92 | 1015.1 |
| 20260901041523 | 58 | 137 | 0.0 | 0.0 | 0.00 | 0.00 | 0.00 | 92 | 1015.1 |
| 20260901040022 | 58 | 135 | 0.0 | 0.0 | 0.00 | 0.01 | 0.00 | 92 | 1015.3 |
| 20260901034513 | 58 | 135 | 0.0 | 0.0 | 0.00 | 0.01 | 0.00 | 92 | 1015.2 |
| 20260901033021 | 58 | 136 | 0.0 | 0.0 | 0.00 | 0.01 | 0.00 | 92 | 1015.2 |
| 20260901031510 | 58 | 137 | 0.0 | 0.0 | 0.00 | 0.01 | 0.00 | 92 | 1015.1 |
| 20260901030018 | 58 | 135 | 0.0 | 0.0 | 0.00 | 0.01 | 0.00 | 92 | 1015.0 |
| 20260901024509 | 58 | 135 | 0.0 | 0.0 | 0.00 | 0.01 | 0.00 | 92 | 1015.1 |
| 20260901023021 | 57 | 137 | 0.0 | 0.0 | 0.00 | 0.01 | 0.00 | 92 | 1015.1 |
| 20260901021530 | 57 | 137 | 0.0 | 0.0 | 0.00 | 0.01 | 0.00 | 92 | 1015.3 |
| 20260901020007 | 58 | 135 | 0.0 | 0.0 | 0.00 | 0.01 | 0.00 | 91 | 1015.2 |
| 20260901014529 | 58 | 135 | 0.0 | 0.0 | 0.00 | 0.01 | 0.00 | 90 | 1015.5 |
| 20260901013016 | 59 | 137 | 0.0 | 0.0 | 0.00 | 0.01 | 0.00 | 90 | 1015.5 |
| 20260901011528 | 59 | 137 | 0.0 | 0.0 | 0.00 | 0.01 | 0.00 | 90 | 1015.4 |
| 20260901010008 | 60 | 137 | 0.0 | 0.0 | 0.00 | 0.01 | 0.00 | 89 | 1015.4 |
| 20260901004513 | 60 | 135 | 0.0 | 0.0 | 0.00 | 0.01 | 0.00 | 88 | 1015.2 |
| 20260901003015 | 61 | 135 | 0.0 | 0.0 | 0.00 | 0.01 | 0.00 | 87 | 1014.9 |
| 20260901001517 | 62 | 135 | 0.0 | 0.0 | 0.00 | 0.01 | 0.00 | 85 | 1014.9 |
| 20260901000004 | 62 | 137 | 0.0 | 2.0 | 0.00 | 0.01 | 0.00 | 84 | 1015.0 |
| 20260831234511 | 63 | 137 | 0.0 | 0.0 | 0.00 | 0.01 | 0.00 | 83 | 1015.0 |
| 20260831233014 | 64 | 135 | 0.0 | 0.0 | 0.00 | 0.01 | 0.00 | 82 | 1015.1 |
| 20260831231516 | 65 | 137 | 0.0 | 0.0 | 0.00 | 0.01 | 0.00 | 80 | 1014.9 |
| 20260831230024 | 66 | 136 | 0.0 | 0.0 | 0.00 | 0.01 | 0.00 | 79 | 1014.9 |
| 20260831224508 | 67 | 136 | 0.0 | 0.0 | 0.00 | 0.01 | 0.00 | 79 | 1015.0 |
| 20260831223013 | 68 | 137 | 0.0 | 2.0 | 0.00 | 0.01 | 0.00 | 78 | 1015.2 |
| 20260831221516 | 68 | 146 | 0.0 | 0.0 | 0.00 | 0.01 | 0.00 | 77 | 1015.0 |
| 20260831220023 | 68 | 145 | 0.0 | 1.0 | 0.00 | 0.01 | 0.00 | 76 | 1015.1 |
| 20260831214518 | 69 | 80 | 0.0 | 2.0 | 0.00 | 0.01 | 0.00 | 74 | 1015.3 |
| 20260831213014 | 70 | 79 | 0.0 | 4.0 | 0.00 | 0.01 | 0.00 | 67 | 1015.3 |
| 20260831211520 | 71 | 81 | 0.0 | 4.0 | 0.00 | 0.01 | 0.00 | 67 | 1015.3 |
| 20260831210006 | 71 | 62 | 2.0 | 8.0 | 0.00 | 0.01 | 0.00 | 63 | 1015.3 |
| 20260831204518 | 71 | 115 | 0.0 | 2.0 | 0.00 | 0.01 | 0.00 | 61 | 1015.4 |
| 20260831203023 | 72 | 46 | 1.0 | 7.0 | 0.00 | 0.01 | 0.00 | 61 | 1015.2 |
| 20260831201504 | 72 | 120 | 2.0 | 5.0 | 0.00 | 0.01 | 0.00 | 64 | 1015.1 |
| 20260831200013 | 72 | 76 | 0.0 | 8.0 | 0.00 | 0.01 | 0.00 | 62 | 1015.2 |
| 20260831194511 | 73 | 151 | 0.0 | 0.0 | 0.00 | 0.01 | 0.00 | 64 | 1015.4 |
| 20260831193020 | 73 | 120 | 0.0 | 7.0 | 0.00 | 0.01 | 0.00 | 66 | 1015.5 |
| 20260831191504 | 72 | 137 | 0.0 | 2.0 | 0.00 | 0.01 | 0.00 | 67 | 1015.8 |
| 20260831190014 | 72 | 75 | 0.0 | 4.0 | 0.00 | 0.01 | 0.00 | 68 | 1015.8 |
| 20260831184520 | 72 | 122 | 0.0 | 7.0 | 0.00 | 0.01 | 0.00 | 69 | 1015.9 |
| 20260831183013 | 73 | 110 | 0.0 | 4.0 | 0.00 | 0.01 | 0.00 | 66 | 1016.0 |
| 20260831181523 | 73 | 327 | 0.0 | 8.0 | 0.00 | 0.01 | 0.00 | 65 | 1016.0 |
| 20260831180016 | 73 | 137 | 0.0 | 7.0 | 0.00 | 0.01 | 0.00 | 63 | 1016.0 |
| 20260831174523 | 74 | 347 | 0.0 | 0.0 | 0.00 | 0.01 | 0.00 | 61 | 1016.3 |
| 20260831173014 | 74 | 113 | 0.0 | 7.0 | 0.00 | 0.01 | 0.00 | 59 | 1016.5 |
| 20260831171523 | 73 | 359 | 1.0 | 5.0 | 0.00 | 0.01 | 0.00 | 64 | 1016.5 |
| 20260831170013 | 74 | 122 | 1.0 | 7.0 | 0.00 | 0.01 | 0.00 | 68 | 1016.6 |
| 20260831164520 | 73 | 125 | 1.0 | 6.0 | 0.00 | 0.01 | 0.00 | 60 | 1016.6 |
| 20260831163009 | 73 | 359 | 0.0 | 5.0 | 0.00 | 0.01 | 0.00 | 63 | 1016.7 |
| 20260831161519 | 72 | 328 | 3.0 | 8.0 | 0.00 | 0.01 | 0.00 | 64 | 1016.9 |
| 20260831160013 | 71 | 137 | 2.0 | 6.0 | 0.00 | 0.01 | 0.00 | 62 | 1017.1 |
| 20260831154518 | 71 | 341 | 0.0 | 4.0 | 0.00 | 0.01 | 0.00 | 68 | 1017.4 |
| 20260831153007 | 70 | 282 | 0.0 | 0.0 | 0.00 | 0.01 | 0.00 | 73 | 1017.4 |
| 20260831151519 | 68 | 4 | 0.0 | 0.0 | 0.00 | 0.01 | 0.00 | 84 | 1017.5 |
| 20260831150005 | 66 | 354 | 0.0 | 0.0 | 0.00 | 0.01 | 0.00 | 86 | 1017.4 |
| 20260831144515 | 65 | 330 | 0.0 | 1.0 | 0.00 | 0.01 | 0.00 | 90 | 1017.6 |
| 20260831143002 | 63 | 330 | 0.0 | 0.0 | 0.00 | 0.01 | 0.00 | 94 | 1017.6 |
| 20260831141514 | 62 | 331 | 0.0 | 0.0 | 0.00 | 0.01 | 0.00 | 95 | 1017.6 |
| 20260831140026 | 61 | 333 | 0.0 | 4.0 | 0.00 | 0.02 | 0.00 | 96 | 1017.7 |
| 20260831134520 | 60 | 359 | 0.0 | 1.0 | 0.00 | 0.02 | 0.00 | 96 | 1018.1 |
| 20260831133020 | 59 | 312 | 0.0 | 1.0 | 0.00 | 0.02 | 0.00 | 96 | 1017.9 |
| 20260831131510 | 59 | 318 | 0.0 | 0.0 | 0.00 | 0.02 | 0.00 | 97 | 1018.1 |
| 20260831130020 | 58 | 359 | 0.0 | 6.0 | 0.00 | 0.02 | 0.00 | 97 | 1018.2 |
| 20260831124508 | 56 | 359 | 0.0 | 1.0 | 0.00 | 0.02 | 0.00 | 96 | 1018.4 |
| 20260831123023 | 55 | 359 | 0.0 | 0.0 | 0.00 | 0.02 | 0.00 | 96 | 1018.4 |
| 20260831121506 | 55 | 359 | 0.0 | 4.0 | 0.00 | 0.02 | 0.00 | 97 | 1018.5 |
| 20260831120024 | 54 | 359 | 0.0 | 5.0 | 0.00 | 0.03 | 0.00 | 96 | 1018.5 |
| 20260831114512 | 52 | 359 | 0.0 | 0.0 | 0.00 | 0.03 | 0.00 | 96 | 1018.5 |
| 20260831113022 | 52 | 315 | 0.0 | 0.0 | 0.00 | 0.03 | 0.00 | 96 | 1018.3 |
| 20260831111510 | 52 | 314 | 0.0 | 0.0 | 0.00 | 0.03 | 0.00 | 96 | 1018.1 |
| 20260831110019 | 52 | 314 | 0.0 | 0.0 | 0.00 | 0.03 | 0.00 | 96 | 1018.0 |
| 20260831104514 | 51 | 314 | 0.0 | 0.0 | 0.00 | 0.03 | 0.00 | 96 | 1017.8 |